[[{"header":{"parameterUnit":"m.s-1","parameterCategory":1,"la1":30.2991,"la2":30.254,"lo1":-89.0895,"lo2":-89.0444,"dy":0.0017,"dx":0.0017,"nx":28,"ny":28,"refTime":"2025-01-14T09:00:00:Z","depth":0,"parameterNumber":2,"parameterNumberName":"U-component_of_WINDS"},"data":[0,0,0,0,0,0,0,0,0,0,0,0,0,0,0,0,0,0,0,0,0,0,0,0,0,0,0,0,0,0,0,0,0,0,0,0,0,0,0,0,0,0,0,0,0,0,0,0,0,0,0,0,0,0,0,0,0,0,-1.8302,-1.8302,0,-1.8288,-1.8288,-1.8288,-1.8183,-1.818,-1.8177,-1.8175,-1.8164,-1.8167,-1.8169,0,0,0,0,0,0,0,0,0,0,0,0,0,-1.8241,-1.8242,-1.8302,-1.8302,-1.8302,-1.8288,-1.8288,-1.8288,-1.8183,-1.818,-1.8177,-1.8174,-1.8164,-1.8166,-1.8169,0,0,0,0,0,0,0,0,0,0,0,0,0,-1.8251,-1.8243,-1.8302,-1.8248,-1.8243,-1.8288,-1.8288,-1.8288,-1.8184,-1.818,-1.8176,-1.8172,-1.8163,-1.8166,-1.8169,-1.8267,0,0,-1.8179,-1.818,0,0,0,0,0,0,0,0,-1.8251,-1.8254,-1.8256,-1.8252,-1.8246,-1.8233,-1.8262,-1.8281,-1.8185,-1.8206,-1.8175,-1.817,-1.8191,-1.8191,-1.8197,-1.8266,-1.8266,-1.8179,-1.8181,-1.8183,-1.8183,0,0,0,0,0,0,0,-1.825,-1.8254,-1.8296,-1.8256,-1.825,-1.8225,-1.8222,-1.8265,-1.8221,-1.8204,-1.8196,-1.8196,-1.8187,-1.8195,-1.8196,-1.8266,-1.8179,-1.8182,-1.8184,-1.8185,-1.8413,-1.8417,0,0,0,0,0,0,-1.8257,-1.8254,-1.8297,-1.8296,-1.8239,-1.8229,-1.8226,-1.8241,-1.822,-1.8213,-1.8199,-1.8191,-1.8191,-1.8193,-1.8196,-1.8308,-1.8183,-1.8186,-1.8187,-1.8409,-1.8414,-1.8418,0,0,0,0,0,0,-1.8256,-1.8262,-1.8297,-1.8273,-1.8275,-1.8234,-1.8252,-1.8243,-1.825,-1.8216,-1.8208,-1.8215,-1.8188,-1.8191,-1.8249,-1.8306,-1.8187,-1.819,-1.8404,-1.841,-1.8416,-1.8534,0,0,0,0,0,0,-1.8254,-1.8262,-1.8298,-1.8274,-1.8277,-1.8351,-1.8256,-1.8245,-1.8255,-1.8245,-1.8228,-1.8222,-1.8185,-1.8245,-1.8253,-1.8308,-1.8192,-1.8399,-1.8407,-1.8414,-1.8525,-1.8544,-1.856,0,0,0,0,0,-1.8253,-1.8333,-1.83,-1.8306,-1.8321,-1.8355,-1.8356,-1.8311,-1.826,-1.8297,-1.8275,-1.8223,-1.8299,-1.8252,-1.8259,-1.8317,-1.8395,-1.8405,-1.8414,-1.8517,-1.854,-1.8559,0,0,0,0,0,0,-1.8366,-1.8329,-1.8292,-1.8367,-1.8365,-1.8337,-1.8382,-1.8337,-1.835,-1.8339,-1.8283,-1.8281,-1.8348,-1.8338,-1.8287,-1.841,-1.8338,-1.8349,-1.8414,-1.8435,-1.8452,-1.8454,-1.8195,0,0,0,0,0,-1.84,-1.8429,-1.8395,-1.8464,-1.8465,-1.8424,-1.8436,-1.8401,-1.8397,-1.8396,-1.8378,-1.8377,-1.84,-1.8417,-1.8437,-1.8523,-1.8518,-1.8566,-1.8583,-1.8598,-1.8609,-1.8653,-1.8674,-1.8449,-1.8449,-1.8449,0,0,-1.847,-1.8453,-1.8475,-1.8487,-1.848,-1.8513,-1.8423,-1.8462,-1.8485,-1.8402,-1.8456,-1.8443,-1.8438,-1.851,-1.8541,-1.8504,-1.8669,-1.861,-1.8621,-1.8624,-1.8665,-1.8686,-1.8705,-1.8455,-1.8454,-1.8453,0,0,-1.8614,-1.8604,-1.866,-1.8655,-1.8646,-1.8618,-1.8632,-1.861,-1.8598,-1.8651,-1.8589,-1.8616,-1.8658,-1.8657,-1.8662,-1.8804,-1.8756,-1.8811,-1.8902,-1.8947,-1.8964,-1.898,-1.9031,-1.905,-1.8822,-1.8822,-1.8823,0,-1.8703,-1.8747,-1.8695,-1.8737,-1.8744,-1.8668,-1.8725,-1.8723,-1.8723,-1.8729,-1.8687,-1.8737,-1.8728,-1.8799,-1.8834,-1.884,-1.8855,-1.8814,-1.8966,-1.8981,-1.8994,-1.9043,-1.9062,-1.8829,-1.8828,-1.8828,-1.8827,0,-1.8857,-1.8889,-1.8936,-1.8935,-1.8947,-1.8996,-1.8952,-1.8971,-1.8934,-1.8911,-1.8965,-1.8952,-1.8967,-1.8981,-1.8947,-1.9048,-1.9025,-1.8975,-1.8902,-1.9024,-1.9068,-1.9086,-1.8839,-1.8836,-1.8834,-1.8833,0,0,-1.9074,-1.9042,-1.906,-1.9058,-1.9042,-1.9067,-1.9113,-1.9126,-1.9143,-1.9145,-1.9182,-1.9218,-1.9172,-1.9177,-1.9142,-1.9181,-1.9294,-1.9126,-1.9125,-1.9158,-1.9405,-1.9443,-1.9465,-1.9262,-1.9265,-1.9268,-1.9405,0,-1.9213,-1.9288,-1.9242,-1.9325,-1.9354,-1.9282,-1.9321,-1.9316,-1.9295,-1.9318,-1.9294,-1.9321,-1.9257,-1.926,-1.9295,-1.9273,-1.9343,-1.9262,-1.9298,-1.93,-1.9302,-1.9488,-1.9529,-1.9659,-1.9422,-1.9425,-1.9427,0,-1.9386,-1.9393,-1.9478,-1.9455,-1.9466,-1.9503,-1.9511,-1.9532,-1.9525,-1.9507,-1.9513,-1.9467,-1.9511,-1.9437,-1.9498,-1.9444,-1.9455,-1.9446,-1.945,-1.9453,-1.9372,-1.9497,-1.97,-1.972,-1.9454,-1.9452,-1.945,0,-1.9537,-1.9567,-1.9622,-1.9623,-1.9597,-1.9625,-1.9616,-1.9604,-1.9615,-1.9623,-1.9629,-1.9642,-1.965,-1.9661,-1.9621,-1.9571,-1.9687,-1.9609,-1.9674,-1.9675,-1.9703,-1.9702,-1.9912,-1.9709,-1.9708,-1.9708,-1.9708,0,-1.9697,-1.9753,-1.9689,-1.9723,-1.9783,-1.9729,-1.979,-1.9773,-1.9763,-1.9794,-1.9732,-1.9762,-1.9706,-1.973,-1.9699,-1.9753,-1.9757,-1.9745,-1.9736,-1.9751,-1.9753,-1.9759,-1.9749,-1.9713,-1.9712,-1.9711,-1.971,0,-1.9876,-1.9836,-1.9891,-1.9862,-1.9855,-1.9901,-1.9876,-1.9907,-1.9881,-1.9919,-1.9926,-1.9885,-1.991,-1.987,-1.9892,-1.9871,-1.9947,-1.9924,-1.9949,-1.9943,-2.001,-2.0004,-2.0231,-2.0259,-2.0038,-2.004,-2.0042,0,-1.9982,-2.0023,-1.9997,-2.0012,-2.0006,-2.0031,-2.0041,-1.9989,-2.0002,-1.9996,-2.0028,-2.0047,-2.006,-2.0104,-2.0078,-2.0093,-2.0071,-2.0149,-2.0073,-2.0086,-2.0073,-2.0071,-2.0075,-2.0165,-2.0168,-2.017,-2.0172,0,-2.0175,-2.0152,-2.0168,-2.0177,-2.019,-2.0196,-2.0196,-2.0212,-2.0157,-2.0175,-2.0199,-2.0209,-2.023,-2.0251,-2.0259,-2.0251,-2.0203,-2.0196,-2.0212,-2.0228,-2.0241,-2.0236,-1.9993,-2.0191,-2.0189,-2.0188,-2.0187,-2.0186,-2.0321,-2.0353,-2.0339,-2.0359,-2.0354,-2.0355,-2.0382,-2.0359,-2.0377,-2.0389,-2.0357,-2.0389,-2.038,-2.0387,-2.0383,-2.0408,-2.0374,-2.0397,-2.0403,-2.0409,-2.042,-2.0236,-2.0409,-2.0409,-2.0408,-2.0408,-2.0407,0,-2.051,-2.0497,-2.0516,-2.0518,-2.0533,-2.0484,-2.0482,-2.0499,-2.0527,-2.0522,-2.0536,-2.0563,-2.0583,-2.0557,-2.0572,-2.0597,-2.0575,-2.0602,-2.0601,-2.06,-2.045,-2.0435,-2.062,-2.062,-2.062,-2.0619,-2.0619,-2.0619,-2.0611,-2.0663,-2.0639,-2.0687,-2.0674,-2.0704,-2.0707,-2.0708,-2.0703,-2.0737,-2.0752,-2.0734,-2.0721,-2.0734,-2.0749,-2.0741,-2.075,-2.0786,-2.077,-2.0631,-2.061,-2.0591,-2.0576,-2.0788,-2.0788,-2.0918,-2.0919,-2.092]},{"header":{"parameterUnit":"m.s-1","parameterCategory":1,"la1":30.2991,"la2":30.254,"lo1":-89.0895,"lo2":-89.0444,"dy":0.0017,"dx":0.0017,"nx":28,"ny":28,"refTime":"2025-01-14T09:00:00:Z","depth":0,"parameterNumber":3,"parameterNumberName":"V-component_of_WINDS"},"data":[0,0,0,0,0,0,0,0,0,0,0,0,0,0,0,0,0,0,0,0,0,0,0,0,0,0,0,0,0,0,0,0,0,0,0,0,0,0,0,0,0,0,0,0,0,0,0,0,0,0,0,0,0,0,0,0,0,0,-2.7158,-2.7158,0,-2.7155,-2.7154,-2.7154,-2.7058,-2.7055,-2.7053,-2.705,-2.7048,-2.705,-2.7052,0,0,0,0,0,0,0,0,0,0,0,0,0,-2.7082,-2.7084,-2.7158,-2.7158,-2.7158,-2.7155,-2.7154,-2.7154,-2.7058,-2.7055,-2.7052,-2.7049,-2.7047,-2.705,-2.7052,0,0,0,0,0,0,0,0,0,0,0,0,0,-2.7101,-2.7084,-2.7158,-2.7109,-2.7105,-2.7155,-2.7154,-2.7154,-2.7059,-2.7055,-2.7051,-2.7048,-2.7046,-2.705,-2.7053,-2.7149,0,0,-2.7063,-2.7065,0,0,0,0,0,0,0,0,-2.71,-2.7103,-2.7117,-2.7113,-2.7108,-2.7103,-2.7127,-2.7153,-2.706,-2.7076,-2.705,-2.7046,-2.7069,-2.707,-2.7078,-2.7149,-2.7149,-2.7064,-2.7066,-2.7067,-2.7068,0,0,0,0,0,0,0,-2.7098,-2.7103,-2.7157,-2.7117,-2.7112,-2.7088,-2.7087,-2.7131,-2.7094,-2.7075,-2.7068,-2.7068,-2.7066,-2.7075,-2.7077,-2.7149,-2.7063,-2.7066,-2.7069,-2.707,-2.7299,-2.7303,0,0,0,0,0,0,-2.7104,-2.7103,-2.7157,-2.7156,-2.7094,-2.7092,-2.7091,-2.7108,-2.7093,-2.7087,-2.7072,-2.7064,-2.7071,-2.7073,-2.7077,-2.719,-2.7067,-2.707,-2.7072,-2.7295,-2.73,-2.7304,0,0,0,0,0,0,-2.7102,-2.7109,-2.7157,-2.7128,-2.7132,-2.7098,-2.7118,-2.711,-2.7119,-2.7091,-2.7084,-2.7088,-2.7068,-2.7072,-2.7132,-2.7188,-2.7072,-2.7075,-2.729,-2.7297,-2.7302,-2.7416,0,0,0,0,0,0,-2.7101,-2.711,-2.7146,-2.7129,-2.7134,-2.7212,-2.7122,-2.7113,-2.7125,-2.7115,-2.7104,-2.7099,-2.7066,-2.7127,-2.7135,-2.7191,-2.7077,-2.7285,-2.7293,-2.73,-2.7407,-2.7425,-2.7441,0,0,0,0,0,-2.7098,-2.7178,-2.7148,-2.7155,-2.7178,-2.7216,-2.7218,-2.7178,-2.713,-2.7166,-2.7148,-2.7099,-2.718,-2.7134,-2.7142,-2.72,-2.7281,-2.7291,-2.73,-2.74,-2.7422,-2.744,0,0,0,0,0,0,-2.7202,-2.7175,-2.7141,-2.7218,-2.722,-2.7199,-2.7244,-2.7203,-2.7219,-2.7209,-2.7159,-2.7157,-2.7225,-2.7218,-2.7167,-2.7293,-2.7222,-2.7233,-2.7295,-2.7316,-2.7333,-2.7334,-2.708,0,0,0,0,0,-2.7234,-2.7266,-2.724,-2.731,-2.7313,-2.7279,-2.7293,-2.7262,-2.7262,-2.7263,-2.7249,-2.7252,-2.7277,-2.7296,-2.7318,-2.7404,-2.7402,-2.7448,-2.7465,-2.7479,-2.749,-2.7537,-2.7557,-2.7334,-2.7334,-2.7334,0,0,-2.73,-2.7289,-2.7313,-2.7331,-2.7329,-2.7365,-2.728,-2.7321,-2.7347,-2.7269,-2.7325,-2.7315,-2.7314,-2.7389,-2.742,-2.7385,-2.755,-2.749,-2.7502,-2.7505,-2.7548,-2.7569,-2.7588,-2.734,-2.7339,-2.7338,0,0,-2.7439,-2.7433,-2.7492,-2.7491,-2.7489,-2.7465,-2.7479,-2.7465,-2.7456,-2.7511,-2.7454,-2.7483,-2.7529,-2.7531,-2.7539,-2.7678,-2.7635,-2.7687,-2.7776,-2.7822,-2.7839,-2.7855,-2.7907,-2.7926,-2.7697,-2.7697,-2.7698,0,-2.7522,-2.7573,-2.7527,-2.7572,-2.7582,-2.7513,-2.7572,-2.7574,-2.7579,-2.7588,-2.7547,-2.7604,-2.7598,-2.7673,-2.7707,-2.7714,-2.773,-2.7689,-2.784,-2.7855,-2.7869,-2.7918,-2.7938,-2.7704,-2.7703,-2.7703,-2.7702,0,-2.7676,-2.7712,-2.7759,-2.7767,-2.7782,-2.7834,-2.7796,-2.7817,-2.7784,-2.7765,-2.7823,-2.7814,-2.7834,-2.7848,-2.7817,-2.7919,-2.7897,-2.7849,-2.7778,-2.7898,-2.7943,-2.7961,-2.7713,-2.7711,-2.7709,-2.7708,0,0,-2.7882,-2.7863,-2.7881,-2.7884,-2.7876,-2.7904,-2.7952,-2.7971,-2.7992,-2.7997,-2.8038,-2.8078,-2.8034,-2.8042,-2.8009,-2.805,-2.8164,-2.7997,-2.7996,-2.803,-2.8278,-2.8316,-2.8338,-2.8133,-2.8136,-2.8139,-2.8279,0,-2.8019,-2.8102,-2.8061,-2.8149,-2.8183,-2.8117,-2.8159,-2.816,-2.8143,-2.8169,-2.815,-2.818,-2.8118,-2.8123,-2.816,-2.8142,-2.8213,-2.8131,-2.8172,-2.8174,-2.8178,-2.8362,-2.8402,-2.8534,-2.8296,-2.8299,-2.8301,0,-2.819,-2.8203,-2.8294,-2.8281,-2.8293,-2.8333,-2.8347,-2.8373,-2.8372,-2.8356,-2.8366,-2.8324,-2.8372,-2.8299,-2.8365,-2.831,-2.8324,-2.8318,-2.8322,-2.8327,-2.8247,-2.8374,-2.8575,-2.8597,-2.8328,-2.8326,-2.8324,0,-2.8335,-2.8375,-2.8435,-2.8439,-2.8424,-2.8454,-2.8449,-2.8444,-2.8458,-2.847,-2.848,-2.8497,-2.8508,-2.8523,-2.8488,-2.8438,-2.8559,-2.8483,-2.855,-2.8551,-2.8581,-2.858,-2.879,-2.8585,-2.8585,-2.8585,-2.8584,0,-2.8493,-2.8552,-2.85,-2.8538,-2.8602,-2.8555,-2.862,-2.8608,-2.8604,-2.8638,-2.8581,-2.8615,-2.8564,-2.8593,-2.8565,-2.8625,-2.863,-2.862,-2.8612,-2.8627,-2.8629,-2.8638,-2.8629,-2.859,-2.8589,-2.8588,-2.8587,0,-2.8667,-2.8634,-2.8696,-2.8676,-2.8673,-2.8722,-2.8705,-2.8739,-2.8718,-2.8762,-2.877,-2.8737,-2.8768,-2.8733,-2.8761,-2.8742,-2.8824,-2.8801,-2.8825,-2.882,-2.8889,-2.8884,-2.9115,-2.9144,-2.8918,-2.892,-2.8922,0,-2.8772,-2.8816,-2.8801,-2.882,-2.8819,-2.885,-2.8864,-2.8819,-2.8836,-2.8838,-2.8873,-2.8898,-2.8917,-2.897,-2.8948,-2.897,-2.8949,-2.9028,-2.8952,-2.8966,-2.8954,-2.8953,-2.8958,-2.9045,-2.9048,-2.905,-2.9052,0,-2.8962,-2.8943,-2.8966,-2.8984,-2.9003,-2.9014,-2.9021,-2.904,-2.8993,-2.9016,-2.9047,-2.9061,-2.909,-2.9117,-2.9132,-2.9127,-2.9083,-2.9075,-2.9092,-2.9109,-2.9122,-2.9119,-2.8871,-2.9071,-2.9069,-2.9068,-2.9067,-2.9066,-2.9106,-2.9143,-2.9139,-2.9166,-2.9167,-2.9175,-2.9207,-2.9189,-2.9214,-2.9234,-2.9205,-2.9244,-2.9242,-2.9258,-2.9258,-2.9289,-2.9255,-2.9279,-2.9285,-2.9293,-2.9305,-2.9115,-2.9291,-2.929,-2.9289,-2.9289,-2.9289,0,-2.9296,-2.929,-2.9315,-2.9328,-2.935,-2.9304,-2.931,-2.9331,-2.9367,-2.9368,-2.9387,-2.9423,-2.9449,-2.943,-2.9452,-2.948,-2.946,-2.9488,-2.9487,-2.9487,-2.9332,-2.9317,-2.9503,-2.9503,-2.9503,-2.9503,-2.9503,-2.9503,-2.9398,-2.9458,-2.9439,-2.9499,-2.9492,-2.953,-2.9538,-2.9545,-2.9546,-2.9589,-2.9611,-2.9597,-2.9591,-2.9611,-2.9634,-2.9627,-2.9639,-2.9675,-2.9662,-2.9518,-2.9497,-2.9477,-2.9463,-2.9677,-2.9677,-2.9814,-2.9815,-2.9816]}]]